QPF
0.00 0.00 0.00 0.00 0.00 0.00 0.00 0.00 0.00 0.00 0.00 0.00 0.00 0.00 0.00 0.00 0.00 0.00 0.00 0.00 0.00 0.00 0.00 0.00 0.00 0.00 0.01 0.01 0.01 0.02 0.03 0.03 0.03 0.02 0.03 0.03 0.03 0.04 0.04 0.04 0.04 0.03 0.04 0.04
0.00 0.00 0.00 0.00 0.00 0.00 0.00 0.00 0.00 0.00 0.00 0.00 0.00 0.00 0.00 0.00 0.00 0.00 0.00 0.00 0.00 0.00 0.00 0.00 0.00 0.00 0.00 0.01 0.02 0.03 0.04 0.04 0.04 0.04 0.04 0.05 0.05 0.05 0.04 0.04 0.05 0.04 0.05 0.05
0.00 0.00 0.00 0.00 0.00 0.00 0.00 0.00 0.00 0.00 0.00 0.00 0.00 0.00 0.00 0.00 0.00 0.00 0.00 0.00 0.00 0.00 0.00 0.01 0.01 0.00 0.01 0.02 0.03 0.03 0.03 0.03 0.04 0.05 0.08 0.12 0.10 0.07 0.06 0.06 0.07 0.05 0.05 0.05
0.00 0.00 0.00 0.00 0.00 0.00 0.00 0.00 0.00 0.00 0.00 0.00 0.00 0.00 0.00 0.00 0.00 0.00 0.00 0.00 0.00 0.00 0.00 0.01 0.01 0.01 0.01 0.03 0.03 0.03 0.02 0.02 0.03 0.04 0.08 0.10 0.10 0.08 0.08 0.09 0.10 0.07 0.06 0.05
0.00 0.00 0.00 0.00 0.00 0.00 0.00 0.00 0.00 0.00 0.00 0.00 0.00 0.00 0.00 0.00 0.00 0.00 0.00 0.00 0.00 0.00 0.00 0.01 0.01 0.02 0.03 0.03 0.03 0.02 0.02 0.02 0.03 0.04 0.06 0.07 0.09 0.10 0.11 0.10 0.10 0.09 0.08 0.06
0.00 0.00 0.00 0.00 0.00 0.00 0.00 0.00 0.00 0.00 0.00 0.00 0.00 0.00 0.00 0.00 0.00 0.00 0.00 0.00 0.00 0.00 0.00 0.01 0.02 0.05 0.05 0.04 0.04 0.03 0.02 0.03 0.05 0.05 0.04 0.07 0.09 0.11 0.11 0.10 0.11 0.11 0.09 0.07
0.00 0.00 0.00 0.00 0.00 0.00 0.00 0.00 0.00 0.00 0.00 0.00 0.00 0.00 0.00 0.00 0.00 0.00 0.00 0.00 0.00 0.00 0.00 0.00 0.01 0.02 0.02 0.05 0.09 0.06 0.04 0.03 0.04 0.05 0.04 0.08 0.08 0.09 0.11 0.14 0.15 0.13 0.09 0.06
0.00 0.00 0.00 0.00 0.00 0.00 0.00 0.00 0.00 0.00 0.00 0.00 0.00 0.00 0.00 0.00 0.00 0.00 0.00 0.00 0.00 0.00 0.00 0.00 0.01 0.00 0.01 0.03 0.07 0.05 0.04 0.03 0.03 0.04 0.04 0.06 0.08 0.12 0.15 0.15 0.16 0.13 0.09 0.06
0.00 0.00 0.00 0.00 0.00 0.00 0.00 0.00 0.00 0.00 0.00 0.00 0.00 0.00 0.00 0.00 0.00 0.00 0.00 0.00 0.00 0.00 0.01 0.01 0.01 0.00 0.01 0.02 0.03 0.04 0.04 0.04 0.04 0.04 0.06 0.07 0.09 0.13 0.17 0.16 0.12 0.09 0.07 0.06
0.00 0.00 0.00 0.00 0.00 0.00 0.00 0.00 0.00 0.00 0.00 0.00 0.00 0.00 0.00 0.00 0.00 0.00 0.00 0.00 0.00 0.00 0.01 0.01 0.01 0.01 0.01 0.02 0.02 0.04 0.06 0.05 0.04 0.06 0.08 0.10 0.10 0.10 0.11 0.10 0.08 0.08 0.06 0.06
0.00 0.00 0.00 0.00 0.00 0.00 0.00 0.00 0.00 0.00 0.00 0.00 0.00 0.00 0.00 0.00 0.00 0.00 0.00 0.00 0.00 0.01 0.01 0.00 0.00 0.01 0.01 0.02 0.02 0.02 0.03 0.03 0.03 0.05 0.07 0.07 0.07 0.08 0.09 0.10 0.10 0.08 0.07 0.08
0.00 0.00 0.00 0.00 0.00 0.00 0.00 0.00 0.00 0.00 0.00 0.00 0.00 0.00 0.00 0.00 0.00 0.00 0.00 0.00 0.00 0.00 0.00 0.00 0.01 0.01 0.01 0.01 0.01 0.02 0.02 0.02 0.03 0.04 0.06 0.07 0.07 0.08 0.10 0.11 0.10 0.07 0.08 0.09
0.00 0.00 0.00 0.00 0.00 0.00 0.00 0.00 0.00 0.00 0.00 0.00 0.00 0.00 0.00 0.00 0.00 0.00 0.00 0.00 0.00 0.00 0.00 0.00 0.00 0.00 0.01 0.01 0.02 0.02 0.02 0.02 0.02 0.03 0.05 0.07 0.08 0.09 0.13 0.14 0.11 0.08 0.07 0.08
0.00 0.00 0.00 0.00 0.00 0.00 0.00 0.00 0.00 0.00 0.00 0.00 0.00 0.00 0.00 0.00 0.00 0.00 0.00 0.00 0.00 0.00 0.00 0.00 0.00 0.01 0.01 0.01 0.01 0.01 0.02 0.02 0.02 0.04 0.05 0.07 0.07 0.09 0.10 0.10 0.10 0.08 0.07 0.07
0.00 0.00 0.00 0.00 0.00 0.00 0.00 0.00 0.00 0.00 0.00 0.00 0.00 0.00 0.00 0.00 0.00 0.00 0.00 0.00 0.00 0.00 0.00 0.00 0.00 0.01 0.01 0.02 0.03 0.02 0.03 0.03 0.04 0.05 0.06 0.06 0.07 0.09 0.09 0.09 0.09 0.08 0.08 0.11
0.00 0.00 0.00 0.00 0.00 0.00 0.00 0.00 0.00 0.00 0.00 0.00 0.00 0.00 0.00 0.00 0.00 0.00 0.00 0.00 0.00 0.00 0.01 0.01 0.00 0.00 0.01 0.03 0.04 0.03 0.04 0.06 0.06 0.06 0.06 0.06 0.07 0.08 0.07 0.09 0.08 0.07 0.06 0.07
0.00 0.00 0.00 0.00 0.00 0.00 0.00 0.00 0.00 0.00 0.00 0.00 0.00 0.00 0.00 0.00 0.00 0.00 0.00 0.00 0.00 0.00 0.01 0.00 0.00 0.00 0.00 0.01 0.03 0.05 0.05 0.06 0.08 0.07 0.05 0.04 0.05 0.06 0.06 0.07 0.08 0.08 0.07 0.06
0.00 0.00 0.00 0.00 0.00 0.00 0.00 0.00 0.00 0.00 0.00 0.00 0.00 0.00 0.00 0.00 0.00 0.00 0.00 0.00 0.00 0.00 0.00 0.01 0.01 0.01 0.01 0.01 0.03 0.04 0.06 0.08 0.09 0.08 0.05 0.04 0.05 0.05 0.07 0.07 0.09 0.13 0.13 0.11
0.00 0.00 0.00 0.00 0.00 0.00 0.00 0.00 0.00 0.00 0.00 0.00 0.00 0.00 0.00 0.00 0.01 0.00 0.00 0.00 0.01 0.00 0.01 0.01 0.01 0.02 0.02 0.02 0.03 0.04 0.05 0.07 0.07 0.06 0.04 0.04 0.04 0.06 0.09 0.10 0.06 0.07 0.08 0.09
0.00 0.00 0.00 0.00 0.00 0.00 0.00 0.00 0.00 0.00 0.00 0.00 0.00 0.00 0.00 0.00 0.01 0.00 0.01 0.01 0.01 0.01 0.01 0.01 0.01 0.01 0.02 0.02 0.02 0.03 0.03 0.04 0.04 0.04 0.04 0.04 0.04 0.04 0.06 0.10 0.10 0.08 0.07 0.08
0.00 0.00 0.00 0.00 0.00 0.00 0.00 0.00 0.00 0.00 0.00 0.00 0.00 0.00 0.00 0.00 0.00 0.00 0.01 0.01 0.02 0.02 0.02 0.02 0.03 0.03 0.03 0.03 0.03 0.03 0.03 0.04 0.05 0.04 0.03 0.03 0.03 0.03 0.04 0.06 0.09 0.13 0.13 0.14
0.00 0.00 0.00 0.00 0.00 0.00 0.00 0.00 0.01 0.00 0.00 0.00 0.00 0.00 0.00 0.00 0.00 0.01 0.01 0.02 0.02 0.03 0.03 0.03 0.04 0.04 0.03 0.03 0.03 0.03 0.03 0.04 0.04 0.03 0.01 0.01 0.01 0.01 0.01 0.01 0.02 0.04 0.06 0.09
0.01 0.00 0.00 0.00 0.00 0.00 0.00 0.00 0.01 0.00 0.01 0.01 0.01 0.00 0.00 0.01 0.00 0.01 0.01 0.01 0.02 0.03 0.03 0.04 0.05 0.04 0.04 0.02 0.02 0.02 0.03 0.03 0.02 0.01 0.01 0.01 0.01 0.01 0.01 0.01 0.02 0.03 0.05 0.06
0.01 0.00 0.01 0.00 0.00 0.00 0.00 0.00 0.01 0.01 0.01 0.01 0.01 0.01 0.01 0.01 0.01 0.01 0.01 0.01 0.01 0.03 0.03 0.03 0.02 0.02 0.02 0.02 0.02 0.02 0.02 0.02 0.02 0.02 0.01 0.01 0.01 0.02 0.01 0.01 0.01 0.01 0.02 0.03
0.01 0.01 0.00 0.01 0.01 0.01 0.01 0.01 0.01 0.01 0.01 0.02 0.02 0.03 0.03 0.02 0.02 0.01 0.01 0.01 0.01 0.02 0.02 0.02 0.02 0.01 0.01 0.01 0.01 0.01 0.02 0.02 0.02 0.02 0.02 0.02 0.02 0.01 0.01 0.01 0.01 0.01 0.01 0.01
0.01 0.01 0.01 0.01 0.01 0.01 0.01 0.02 0.02 0.02 0.02 0.04 0.04 0.03 0.03 0.02 0.02 0.02 0.03 0.03 0.03 0.03 0.02 0.02 0.01 0.01 0.01 0.00 0.01 0.01 0.02 0.02 0.02 0.03 0.03 0.03 0.03 0.03 0.02 0.01 0.01 0.01 0.01 0.01
MSLP
1011.91 1012.24 1012.50 1012.70 1012.87 1013.03 1013.18 1013.33 1013.43 1013.44 1013.33 1013.07 1012.66 1012.12 1011.53 1010.97 1010.52 1010.26 1010.25 1010.49 1010.98 1011.64 1012.41 1013.20 1013.94 1014.57 1015.07 1015.44 1015.68 1015.83 1015.92 1015.98 1016.01 1016.03 1016.05 1016.05 1016.04 1016.02 1016.01 1016.00 1016.02 1016.06 1016.13 1016.22
1012.16 1012.42 1012.62 1012.78 1012.95 1013.14 1013.36 1013.58 1013.77 1013.85 1013.79 1013.53 1013.09 1012.50 1011.82 1011.15 1010.62 1010.29 1010.24 1010.48 1010.98 1011.69 1012.52 1013.35 1014.12 1014.74 1015.21 1015.52 1015.69 1015.77 1015.79 1015.79 1015.80 1015.82 1015.85 1015.87 1015.87 1015.86 1015.82 1015.79 1015.75 1015.74 1015.76 1015.81
1012.32 1012.50 1012.64 1012.76 1012.92 1013.15 1013.43 1013.73 1014.00 1014.16 1014.14 1013.90 1013.44 1012.81 1012.07 1011.34 1010.74 1010.38 1010.31 1010.56 1011.09 1011.83 1012.69 1013.54 1014.29 1014.88 1015.28 1015.51 1015.59 1015.58 1015.54 1015.50 1015.50 1015.53 1015.58 1015.64 1015.67 1015.67 1015.64 1015.57 1015.49 1015.42 1015.39 1015.40
1012.36 1012.48 1012.56 1012.65 1012.82 1013.08 1013.42 1013.80 1014.14 1014.36 1014.39 1014.18 1013.72 1013.06 1012.29 1011.52 1010.90 1010.52 1010.45 1010.71 1011.26 1012.02 1012.87 1013.71 1014.42 1014.95 1015.27 1015.40 1015.38 1015.29 1015.19 1015.13 1015.13 1015.19 1015.30 1015.40 1015.49 1015.51 1015.48 1015.39 1015.27 1015.15 1015.05 1015.00
1012.27 1012.34 1012.39 1012.48 1012.66 1012.96 1013.36 1013.81 1014.22 1014.50 1014.57 1014.38 1013.93 1013.27 1012.49 1011.72 1011.09 1010.71 1010.64 1010.91 1011.46 1012.22 1013.05 1013.84 1014.50 1014.94 1015.17 1015.20 1015.11 1014.95 1014.81 1014.74 1014.77 1014.88 1015.05 1015.22 1015.36 1015.42 1015.40 1015.29 1015.13 1014.94 1014.77 1014.64
1012.04 1012.09 1012.14 1012.25 1012.47 1012.82 1013.28 1013.79 1014.25 1014.58 1014.69 1014.53 1014.10 1013.45 1012.68 1011.92 1011.30 1010.93 1010.88 1011.14 1011.68 1012.41 1013.20 1013.93 1014.51 1014.87 1015.01 1014.97 1014.81 1014.62 1014.47 1014.42 1014.48 1014.66 1014.90 1015.14 1015.34 1015.44 1015.43 1015.29 1015.08 1014.82 1014.55 1014.33
1011.67 1011.74 1011.82 1011.98 1012.26 1012.67 1013.18 1013.73 1014.24 1014.60 1014.74 1014.61 1014.21 1013.59 1012.85 1012.12 1011.53 1011.18 1011.13 1011.39 1011.90 1012.58 1013.32 1013.98 1014.48 1014.77 1014.85 1014.75 1014.56 1014.36 1014.23 1014.22 1014.34 1014.59 1014.90 1015.21 1015.46 1015.59 1015.57 1015.41 1015.14 1014.79 1014.43 1014.09
1011.19 1011.31 1011.45 1011.68 1012.02 1012.49 1013.04 1013.63 1014.16 1014.54 1014.70 1014.59 1014.22 1013.65 1012.96 1012.28 1011.73 1011.41 1011.38 1011.62 1012.11 1012.74 1013.41 1014.01 1014.45 1014.68 1014.73 1014.61 1014.43 1014.25 1014.16 1014.20 1014.40 1014.71 1015.08 1015.45 1015.73 1015.88 1015.85 1015.65 1015.31 1014.87 1014.40 1013.95
1010.63 1010.82 1011.05 1011.36 1011.76 1012.27 1012.86 1013.45 1013.98 1014.36 1014.52 1014.43 1014.11 1013.59 1012.97 1012.36 1011.87 1011.60 1011.58 1011.82 1012.28 1012.87 1013.48 1014.03 1014.42 1014.64 1014.68 1014.59 1014.44 1014.32 1014.29 1014.40 1014.66 1015.02 1015.44 1015.84 1016.14 1016.28 1016.23 1015.98 1015.58 1015.07 1014.51 1013.95
1010.06 1010.34 1010.65 1011.02 1011.48 1012.02 1012.60 1013.17 1013.67 1014.02 1014.17 1014.09 1013.81 1013.36 1012.82 1012.30 1011.90 1011.68 1011.70 1011.95 1012.40 1012.95 1013.53 1014.05 1014.43 1014.66 1014.73 1014.70 1014.63 1014.58 1014.63 1014.80 1015.11 1015.51 1015.95 1016.35 1016.64 1016.77 1016.69 1016.41 1015.96 1015.39 1014.76 1014.13
1009.54 1009.89 1010.28 1010.71 1011.19 1011.72 1012.26 1012.77 1013.20 1013.49 1013.61 1013.54 1013.29 1012.91 1012.47 1012.06 1011.76 1011.63 1011.71 1011.99 1012.43 1012.98 1013.55 1014.07 1014.47 1014.74 1014.88 1014.94 1014.95 1015.00 1015.13 1015.36 1015.70 1016.12 1016.55 1016.94 1017.21 1017.30 1017.20 1016.90 1016.43 1015.83 1015.18 1014.52
1009.13 1009.55 1009.99 1010.44 1010.92 1011.40 1011.86 1012.28 1012.60 1012.81 1012.87 1012.79 1012.57 1012.27 1011.93 1011.64 1011.46 1011.43 1011.59 1011.92 1012.39 1012.95 1013.53 1014.07 1014.53 1014.86 1015.10 1015.26 1015.38 1015.53 1015.73 1016.01 1016.37 1016.78 1017.19 1017.54 1017.77 1017.85 1017.73 1017.43 1016.97 1016.40 1015.76 1015.12
1008.86 1009.32 1009.79 1010.25 1010.69 1011.09 1011.44 1011.72 1011.92 1012.01 1012.00 1011.88 1011.69 1011.46 1011.23 1011.07 1011.01 1011.10 1011.35 1011.75 1012.27 1012.87 1013.49 1014.07 1014.59 1015.01 1015.35 1015.62 1015.86 1016.10 1016.37 1016.69 1017.05 1017.43 1017.80 1018.11 1018.31 1018.36 1018.25 1017.98 1017.58 1017.07 1016.50 1015.92
1008.73 1009.22 1009.70 1010.14 1010.51 1010.81 1011.03 1011.15 1011.19 1011.15 1011.05 1010.89 1010.71 1010.54 1010.42 1010.38 1010.46 1010.68 1011.03 1011.52 1012.10 1012.75 1013.42 1014.06 1014.66 1015.17 1015.62 1016.00 1016.34 1016.66 1016.99 1017.33 1017.68 1018.03 1018.35 1018.61 1018.78 1018.83 1018.74 1018.53 1018.21 1017.80 1017.34 1016.87
1008.71 1009.22 1009.69 1010.09 1010.39 1010.57 1010.64 1010.60 1010.48 1010.30 1010.10 1009.89 1009.71 1009.60 1009.57 1009.66 1009.87 1010.22 1010.69 1011.26 1011.92 1012.63 1013.36 1014.07 1014.74 1015.34 1015.88 1016.36 1016.79 1017.19 1017.56 1017.91 1018.24 1018.55 1018.83 1019.04 1019.19 1019.24 1019.20 1019.06 1018.84 1018.55 1018.23 1017.88
1008.73 1009.25 1009.71 1010.07 1010.29 1010.36 1010.28 1010.09 1009.82 1009.50 1009.20 1008.94 1008.77 1008.70 1008.77 1008.97 1009.31 1009.78 1010.36 1011.04 1011.78 1012.55 1013.34 1014.11 1014.84 1015.53 1016.15 1016.71 1017.21 1017.66 1018.06 1018.41 1018.73 1019.00 1019.23 1019.41 1019.53 1019.60 1019.61 1019.55 1019.45 1019.29 1019.10 1018.88
1008.73 1009.25 1009.70 1010.01 1010.16 1010.13 1009.93 1009.60 1009.20 1008.77 1008.38 1008.08 1007.91 1007.89 1008.04 1008.36 1008.82 1009.42 1010.11 1010.88 1011.70 1012.54 1013.38 1014.21 1015.00 1015.74 1016.43 1017.05 1017.61 1018.09 1018.51 1018.86 1019.15 1019.39 1019.58 1019.73 1019.85 1019.93 1019.99 1020.02 1020.01 1019.98 1019.91 1019.81
1008.63 1009.14 1009.57 1009.85 1009.94 1009.84 1009.55 1009.12 1008.61 1008.10 1007.65 1007.33 1007.17 1007.21 1007.44 1007.87 1008.45 1009.16 1009.96 1010.82 1011.71 1012.62 1013.51 1014.38 1015.21 1015.99 1016.72 1017.39 1017.98 1018.49 1018.91 1019.26 1019.53 1019.75 1019.91 1020.04 1020.15 1020.26 1020.36 1020.45 1020.53 1020.60 1020.64 1020.64
1008.38 1008.88 1009.29 1009.54 1009.60 1009.44 1009.10 1008.60 1008.04 1007.48 1007.01 1006.69 1006.56 1006.66 1006.97 1007.50 1008.19 1009.00 1009.91 1010.86 1011.82 1012.78 1013.71 1014.61 1015.47 1016.29 1017.04 1017.73 1018.34 1018.87 1019.30 1019.65 1019.91 1020.11 1020.25 1020.37 1020.48 1020.60 1020.73 1020.88 1021.03 1021.17 1021.28 1021.36
1008.00 1008.47 1008.85 1009.08 1009.12 1008.94 1008.57 1008.06 1007.48 1006.92 1006.46 1006.16 1006.08 1006.24 1006.64 1007.25 1008.04 1008.96 1009.95 1010.97 1012.00 1013.00 1013.97 1014.89 1015.77 1016.60 1017.37 1018.07 1018.70 1019.24 1019.68 1020.03 1020.30 1020.49 1020.63 1020.74 1020.86 1020.99 1021.14 1021.32 1021.52 1021.71 1021.88 1022.01
1007.52 1007.94 1008.29 1008.50 1008.53 1008.35 1008.00 1007.51 1006.96 1006.43 1006.01 1005.77 1005.75 1005.98 1006.45 1007.15 1008.02 1009.01 1010.08 1011.16 1012.23 1013.27 1014.26 1015.20 1016.08 1016.91 1017.69 1018.40 1019.04 1019.59 1020.05 1020.42 1020.69 1020.89 1021.04 1021.16 1021.28 1021.42 1021.60 1021.80 1022.03 1022.26 1022.47 1022.65
1006.99 1007.35 1007.67 1007.87 1007.90 1007.76 1007.45 1007.02 1006.54 1006.08 1005.73 1005.55 1005.60 1005.90 1006.44 1007.20 1008.13 1009.18 1010.29 1011.41 1012.50 1013.56 1014.56 1015.50 1016.38 1017.21 1017.99 1018.70 1019.35 1019.92 1020.40 1020.79 1021.09 1021.31 1021.48 1021.62 1021.75 1021.91 1022.09 1022.32 1022.57 1022.83 1023.08 1023.30
1006.49 1006.79 1007.07 1007.27 1007.33 1007.24 1007.01 1006.67 1006.28 1005.93 1005.67 1005.58 1005.70 1006.05 1006.64 1007.44 1008.40 1009.47 1010.59 1011.72 1012.82 1013.87 1014.86 1015.78 1016.65 1017.48 1018.25 1018.97 1019.63 1020.22 1020.72 1021.14 1021.47 1021.72 1021.92 1022.09 1022.25 1022.42 1022.62 1022.86 1023.13 1023.43 1023.72 1023.98
1006.09 1006.33 1006.58 1006.79 1006.90 1006.89 1006.76 1006.54 1006.28 1006.04 1005.89 1005.89 1006.07 1006.48 1007.09 1007.90 1008.85 1009.90 1011.00 1012.10 1013.17 1014.20 1015.16 1016.06 1016.91 1017.71 1018.48 1019.20 1019.86 1020.47 1021.00 1021.45 1021.82 1022.11 1022.34 1022.54 1022.72 1022.92 1023.14 1023.40 1023.70 1024.03 1024.36 1024.67
1005.82 1006.01 1006.25 1006.49 1006.66 1006.76 1006.75 1006.67 1006.56 1006.45 1006.41 1006.50 1006.75 1007.18 1007.79 1008.58 1009.49 1010.49 1011.53 1012.57 1013.59 1014.56 1015.48 1016.34 1017.15 1017.93 1018.68 1019.39 1020.06 1020.68 1021.23 1021.71 1022.12 1022.45 1022.72 1022.94 1023.15 1023.37 1023.62 1023.90 1024.23 1024.59 1024.96 1025.33
1005.69 1005.86 1006.11 1006.39 1006.65 1006.86 1007.00 1007.07 1007.10 1007.14 1007.22 1007.39 1007.69 1008.13 1008.72 1009.46 1010.31 1011.22 1012.18 1013.14 1014.08 1014.98 1015.83 1016.64 1017.42 1018.16 1018.89 1019.58 1020.25 1020.87 1021.43 1021.93 1022.36 1022.71 1023.01 1023.27 1023.50 1023.74 1024.01 1024.32 1024.67 1025.06 1025.48 1025.90
Thickness
5790 5788 5789 5799 5807 5810 5808 5805 5802 5808 5818 5815 5815 5820 5828 5833 5831 5829 5827 5823 5820 5817 5818 5814 5809 5804 5798 5792 5786 5781 5776 5773 5769 5766 5762 5759 5757 5757 5756 5754 5752 5750 5748 5748
5774 5779 5797 5804 5802 5799 5798 5794 5797 5802 5811 5811 5811 5816 5828 5831 5830 5832 5829 5825 5824 5820 5818 5814 5810 5805 5799 5793 5788 5783 5778 5775 5771 5768 5765 5762 5760 5759 5758 5756 5753 5751 5749 5748
5774 5787 5795 5788 5785 5786 5790 5792 5794 5794 5802 5809 5806 5806 5818 5828 5831 5833 5833 5832 5830 5825 5820 5815 5811 5807 5802 5797 5792 5789 5783 5778 5774 5771 5767 5763 5759 5757 5757 5756 5755 5753 5751 5749
5773 5782 5781 5779 5781 5785 5781 5796 5795 5791 5789 5794 5799 5792 5812 5823 5823 5826 5830 5832 5831 5830 5826 5820 5814 5809 5805 5801 5797 5791 5786 5780 5776 5772 5768 5764 5759 5757 5758 5757 5757 5755 5752 5751
5767 5774 5772 5772 5782 5785 5788 5793 5790 5789 5788 5789 5793 5790 5809 5819 5815 5824 5830 5832 5833 5833 5829 5824 5819 5814 5809 5805 5800 5794 5788 5782 5778 5773 5769 5765 5762 5761 5760 5759 5757 5754 5754 5752
5771 5778 5779 5781 5787 5786 5786 5782 5780 5783 5785 5768 5787 5786 5796 5816 5819 5827 5832 5833 5833 5832 5830 5826 5823 5816 5810 5807 5801 5796 5789 5783 5779 5774 5771 5767 5764 5761 5758 5755 5755 5754 5754 5753
5751 5762 5776 5783 5773 5775 5777 5768 5756 5754 5758 5768 5791 5783 5798 5821 5828 5829 5830 5831 5833 5832 5829 5825 5820 5814 5809 5805 5801 5796 5790 5784 5780 5776 5773 5770 5766 5763 5758 5756 5754 5753 5754 5754
5740 5744 5765 5775 5775 5769 5771 5774 5763 5754 5760 5774 5775 5778 5805 5823 5827 5828 5829 5830 5830 5830 5829 5824 5821 5816 5811 5806 5801 5796 5791 5785 5781 5777 5774 5771 5768 5764 5761 5759 5757 5756 5756 5756
5748 5750 5769 5776 5782 5779 5766 5771 5789 5776 5774 5771 5778 5787 5804 5817 5818 5821 5824 5825 5825 5826 5826 5824 5821 5818 5813 5808 5803 5798 5792 5786 5782 5778 5774 5771 5768 5766 5763 5761 5758 5757 5757 5757
5757 5746 5757 5768 5772 5774 5781 5779 5770 5765 5753 5753 5768 5775 5791 5802 5809 5815 5818 5820 5822 5823 5823 5821 5819 5816 5813 5810 5804 5799 5794 5787 5783 5779 5776 5773 5770 5768 5764 5762 5759 5757 5757 5756
5757 5745 5745 5753 5753 5758 5762 5766 5770 5771 5772 5763 5760 5775 5808 5808 5811 5812 5815 5818 5819 5819 5819 5818 5816 5814 5811 5808 5803 5797 5793 5787 5782 5779 5776 5773 5771 5768 5765 5762 5759 5757 5756 5755
5750 5750 5741 5749 5766 5776 5771 5770 5767 5757 5755 5767 5773 5782 5809 5809 5812 5812 5812 5813 5816 5816 5816 5815 5813 5810 5806 5802 5799 5794 5790 5785 5781 5777 5774 5772 5770 5767 5764 5761 5758 5756 5754 5753
5743 5738 5726 5730 5741 5755 5760 5768 5771 5771 5766 5763 5764 5778 5802 5805 5806 5808 5807 5807 5806 5808 5809 5809 5806 5803 5800 5797 5794 5791 5786 5783 5780 5777 5773 5769 5767 5764 5761 5758 5756 5754 5752 5750
5745 5737 5737 5736 5746 5754 5752 5759 5766 5765 5758 5761 5768 5781 5789 5795 5797 5800 5801 5801 5801 5801 5801 5800 5797 5796 5795 5792 5789 5786 5783 5781 5778 5774 5770 5766 5763 5761 5758 5756 5754 5751 5750 5747
5738 5731 5738 5750 5757 5759 5757 5758 5761 5762 5768 5767 5774 5780 5788 5794 5796 5797 5798 5797 5796 5794 5793 5792 5790 5789 5787 5785 5782 5781 5778 5776 5774 5770 5766 5762 5760 5758 5755 5752 5751 5749 5746 5744
5730 5728 5733 5734 5746 5750 5750 5758 5761 5764 5769 5772 5775 5777 5793 5795 5795 5792 5792 5792 5790 5789 5788 5788 5786 5783 5781 5779 5777 5775 5772 5770 5769 5765 5761 5759 5757 5754 5751 5748 5746 5743 5740 5738
5724 5722 5721 5725 5737 5737 5734 5753 5759 5763 5770 5772 5767 5777 5787 5783 5783 5784 5786 5787 5787 5786 5785 5783 5780 5778 5776 5774 5772 5769 5767 5765 5763 5760 5757 5754 5752 5749 5747 5744 5741 5738 5735 5732
5717 5717 5722 5726 5723 5709 5744 5766 5767 5763 5768 5775 5778 5781 5782 5781 5782 5784 5785 5784 5783 5782 5780 5778 5776 5774 5772 5770 5768 5766 5763 5759 5757 5753 5751 5748 5745 5743 5741 5738 5735 5732 5729 5725
5717 5714 5718 5721 5715 5723 5739 5754 5759 5756 5757 5772 5773 5775 5777 5777 5775 5776 5780 5781 5780 5778 5777 5774 5773 5770 5768 5765 5763 5760 5756 5752 5749 5746 5743 5740 5738 5736 5733 5730 5727 5724 5721 5718
5708 5712 5715 5715 5711 5711 5737 5755 5762 5757 5747 5766 5769 5768 5769 5770 5767 5768 5773 5774 5773 5772 5769 5768 5766 5763 5760 5758 5756 5752 5748 5744 5740 5738 5736 5734 5732 5729 5725 5722 5720 5717 5714 5710
5696 5698 5705 5709 5710 5726 5742 5750 5751 5734 5745 5761 5765 5766 5766 5767 5770 5768 5767 5765 5764 5762 5761 5760 5758 5755 5752 5751 5748 5744 5740 5735 5733 5731 5729 5728 5725 5722 5719 5716 5713 5710 5706 5701
5698 5701 5700 5707 5706 5714 5736 5741 5739 5741 5750 5756 5759 5762 5761 5760 5761 5760 5758 5755 5754 5753 5752 5751 5748 5745 5744 5743 5740 5735 5730 5728 5727 5724 5721 5719 5717 5715 5712 5708 5705 5702 5698 5693
5697 5704 5711 5711 5712 5719 5729 5732 5736 5741 5742 5747 5751 5754 5754 5752 5751 5750 5748 5747 5746 5745 5744 5742 5739 5735 5734 5734 5732 5727 5722 5721 5719 5716 5713 5711 5708 5706 5703 5700 5696 5693 5691 5688
5688 5696 5701 5700 5706 5714 5720 5726 5731 5735 5736 5741 5745 5747 5748 5746 5744 5742 5740 5738 5737 5737 5735 5733 5730 5726 5723 5722 5722 5718 5715 5714 5712 5708 5705 5702 5700 5696 5693 5691 5689 5685 5682 5679
5683 5690 5692 5691 5697 5705 5711 5717 5722 5726 5729 5733 5737 5740 5740 5739 5736 5733 5731 5729 5729 5728 5727 5725 5721 5716 5713 5713 5711 5710 5708 5706 5704 5700 5697 5694 5691 5687 5681 5676 5671 5670 5666 5665
5679 5684 5688 5691 5697 5701 5702 5709 5714 5716 5719 5723 5726 5728 5731 5732 5728 5725 5722 5721 5720 5719 5718 5715 5712 5708 5706 5704 5702 5701 5700 5699 5696 5693 5690 5687 5684 5679 5674 5667 5658 5649 5650 5647